Date String (YYYY-MM-DD hh:mm:ss) UTC,Instrument flags,Ambient pressure (hPa),Sample flow (lpm),Bypass flow (lpm),Sample temperature (°C),Ambient temperature (°C),ASC tube jacket temperature (°C),LED temperature (°C),Box temperature (°C),Sample RH (%),Span deviation,Mass concentration (μg/m³),Mass concentration (μg/m³),Mass concentration (μg/m³)
DateTimeUTC,F1_M11,P_M11,Q1_M11,Q2_M11,T1_M11,T2_M11,T3_M11,T4_M11,T5_M11,U1_M11,ZSPAN_M11,X0_M11,X2_M11,X1_M11
2022-07-18 17:00:00,,0827.5,5.00,0.00,29.7,27.5,00.0,38.3,31.3,32.8,0000.0,0019.95,0007.53,0006.07
2022-07-18 17:01:00,,0827.5,5.00,0.00,29.6,27.7,00.0,38.3,31.3,32.8,0000.0,0018.72,0007.54,0006.06
2022-07-18 17:02:00,,0827.6,5.00,0.00,29.6,27.9,00.0,38.3,31.4,32.3,0000.0,0019.66,0007.52,0006.04
2022-07-18 17:03:00,,0827.6,5.00,0.00,29.7,28.1,00.0,38.3,31.4,32.8,0000.0,0021.20,0007.49,0006.02
2022-07-18 17:04:00,,0827.5,5.00,0.00,29.7,28.3,00.0,38.3,31.5,32.0,0000.0,0021.61,0007.43,0006.00
2022-07-18 17:05:00,,0827.6,5.00,0.00,29.7,28.2,00.0,38.3,31.6,31.5,0000.0,0020.89,0007.44,0006.00
2022-07-18 17:06:00,,0827.5,5.00,0.00,29.7,27.6,00.0,38.3,31.5,30.8,0000.0,0020.13,0007.41,0005.99
2022-07-18 17:07:00,,0827.5,5.00,0.00,29.7,27.4,00.0,38.2,31.4,31.7,0000.0,0019.92,0007.43,0005.97
2022-07-18 17:08:00,,0827.5,5.00,0.00,29.6,27.4,00.0,38.2,31.4,32.4,0000.0,0019.47,0007.41,0005.96
2022-07-18 17:09:00,,0827.6,5.00,0.00,29.6,27.5,00.0,38.3,31.3,32.9,0000.0,0018.87,0007.38,0005.95
2022-07-18 17:10:00,,0827.5,5.01,0.00,29.6,27.7,00.0,38.3,31.3,32.2,0000.0,0019.32,0007.35,0005.94
2022-07-18 17:11:00,,0827.5,4.98,0.00,29.6,27.9,00.0,38.3,31.4,32.1,0000.0,0019.75,0007.35,0005.94
2022-07-18 17:12:00,,0827.5,5.01,0.00,29.6,28.1,00.0,38.3,31.4,31.9,0000.0,0019.35,0007.31,0005.95
2022-07-18 17:13:00,,0827.6,5.00,0.00,29.6,28.3,00.0,38.3,31.5,31.8,0000.0,0018.45,0007.24,0005.94
2022-07-18 17:14:00,,0827.6,5.01,0.00,29.7,28.2,00.0,38.3,31.6,31.3,0000.0,0017.73,0007.25,0005.94
2022-07-18 17:15:00,,0827.6,4.99,0.00,29.7,27.7,00.0,38.2,31.5,31.0,0000.0,0017.64,0007.21,0005.93
2022-07-18 17:16:00,,0827.6,5.00,0.00,29.6,27.4,00.0,38.2,31.4,31.0,0000.0,0017.86,0007.18,0005.90
2022-07-18 17:17:00,,0827.6,5.00,0.00,29.6,27.4,00.0,38.2,31.4,31.0,0000.0,0017.98,0007.19,0005.87
2022-07-18 17:18:00,,0827.5,5.00,0.00,29.6,27.5,00.0,38.2,31.3,31.4,0000.0,0018.05,0007.15,0005.86
2022-07-18 17:19:00,,0827.6,5.00,0.00,29.5,27.7,00.0,38.2,31.3,31.5,0000.0,0017.53,0007.09,0005.83
2022-07-18 17:20:00,,0827.5,5.00,0.00,29.6,27.9,00.0,38.2,31.4,30.6,0000.0,0016.81,0007.05,0005.81
2022-07-18 17:21:00,,0827.5,4.99,0.00,29.6,28.1,00.0,38.3,31.4,30.3,0000.0,0016.00,0006.99,0005.81
2022-07-18 17:22:00,,0827.6,5.00,0.00,29.6,28.2,00.0,38.3,31.5,30.1,0000.0,0015.66,0006.91,0005.79
2022-07-18 17:23:00,,0827.5,5.00,0.00,29.6,27.9,00.0,38.2,31.5,30.5,0000.0,0015.76,0006.90,0005.77
2022-07-18 17:24:00,,0827.5,4.99,0.00,29.6,27.4,00.0,38.2,31.4,30.6,0000.0,0015.21,0006.92,0005.77
2022-07-18 17:25:00,,0827.6,4.99,0.00,29.6,27.3,00.0,38.2,31.4,30.4,0000.0,0014.13,0006.86,0005.75
2022-07-18 17:26:00,,0827.5,5.01,0.00,29.5,27.4,00.0,38.2,31.3,30.4,0000.0,0013.93,0006.87,0005.74
2022-07-18 17:27:00,,0827.5,4.98,0.00,29.5,27.6,00.0,38.2,31.2,30.6,0000.0,0013.40,0006.81,0005.74
2022-07-18 17:28:00,,0827.5,4.99,0.00,29.5,27.7,00.0,38.2,31.3,31.3,0000.0,0013.18,0006.76,0005.74
2022-07-18 17:29:00,,0827.5,5.01,0.00,29.5,27.9,00.0,38.2,31.4,31.0,0000.0,0012.86,0006.76,0005.76
2022-07-18 17:30:00,,0827.5,5.00,0.00,29.5,28.1,00.0,38.2,31.4,30.0,0000.0,0013.00,0006.74,0005.75
2022-07-18 17:31:00,,0827.5,5.01,0.00,29.5,27.8,00.0,38.2,31.4,29.9,0000.0,0014.19,0006.75,0005.74
2022-07-18 17:32:00,,0827.6,5.01,0.00,29.5,27.4,00.0,38.1,31.4,29.5,0000.0,0014.44,0006.79,0005.74
2022-07-18 17:33:00,,0827.5,5.00,0.00,29.5,27.3,00.0,38.1,31.3,29.3,0000.0,0014.14,0006.77,0005.73
2022-07-18 17:34:00,,0827.5,5.00,0.00,29.5,27.3,00.0,38.1,31.2,28.9,0000.0,0013.71,0006.72,0005.72
2022-07-18 17:35:00,,0827.5,5.00,0.00,29.4,27.5,00.0,38.1,31.2,29.6,0000.0,0014.13,0006.70,0005.71
2022-07-18 17:36:00,,0827.5,4.99,0.00,29.4,27.7,00.0,38.1,31.2,29.9,0000.0,0014.86,0006.68,0005.71
2022-07-18 17:37:00,,0827.5,5.00,0.00,29.4,27.9,00.0,38.1,31.3,30.3,0000.0,0014.98,0006.67,0005.71
2022-07-18 17:38:00,,0827.5,5.00,0.00,29.5,28.1,00.0,38.2,31.4,29.9,0000.0,0015.21,0006.68,0005.72
2022-07-18 17:39:00,,0827.4,4.99,0.00,29.5,28.3,00.0,38.2,31.5,30.0,0000.0,0015.62,0006.68,0005.71
2022-07-18 17:40:00,,0827.4,5.00,0.00,29.5,28.0,00.0,38.1,31.5,30.2,0000.0,0016.03,0006.64,0005.69
2022-07-18 17:41:00,,0827.5,5.00,0.00,29.5,27.4,00.0,38.1,31.4,29.9,0000.0,0016.13,0006.67,0005.70
2022-07-18 17:42:00,,0827.4,5.00,0.00,29.5,27.3,00.0,38.1,31.4,30.6,0000.0,0015.09,0006.63,0005.69
2022-07-18 17:43:00,,0827.4,5.00,0.00,29.5,27.4,00.0,38.1,31.3,30.7,0000.0,0014.91,0006.59,0005.67
2022-07-18 17:44:00,,0827.4,5.00,0.00,29.5,27.6,00.0,38.1,31.2,30.5,0000.0,0014.95,0006.61,0005.68
2022-07-18 17:45:00,,0827.4,5.00,0.00,29.4,27.8,00.0,38.1,31.3,30.2,0000.0,0015.48,0006.66,0005.69
2022-07-18 17:46:00,,0827.4,5.00,0.00,29.5,28.0,00.0,38.1,31.4,29.7,0000.0,0015.41,0006.69,0005.70
2022-07-18 17:47:00,,0827.4,5.00,0.00,29.5,28.2,00.0,38.2,31.4,29.9,0000.0,0014.79,0006.71,0005.73
2022-07-18 17:48:00,,0827.3,5.00,0.00,29.5,27.9,00.0,38.1,31.4,30.3,0000.0,0014.49,0006.77,0005.75
2022-07-18 17:49:00,,0827.3,5.01,0.00,29.5,27.4,00.0,38.1,31.4,30.2,0000.0,0014.76,0006.86,0005.78
2022-07-18 17:50:00,,0827.3,4.99,0.00,29.5,27.3,00.0,38.1,31.3,29.6,0000.0,0015.78,0006.98,0005.81
2022-07-18 17:51:00,,0827.2,5.00,0.00,29.4,27.4,00.0,38.1,31.2,29.1,0000.0,0016.65,0007.08,0005.83
2022-07-18 17:52:00,,0827.3,5.00,0.00,29.4,27.6,00.0,38.1,31.2,29.7,0000.0,0016.53,0007.13,0005.85
2022-07-18 17:53:00,,0827.2,5.01,0.00,29.4,27.8,00.0,38.1,31.3,30.1,0000.0,0017.79,0007.17,0005.88
2022-07-18 17:54:00,,0827.3,4.99,0.00,29.5,28.0,00.0,38.1,31.3,30.1,0000.0,0018.62,0007.23,0005.91
2022-07-18 17:55:00,,0827.2,5.01,0.00,29.5,28.1,00.0,38.1,31.4,30.3,0000.0,0020.74,0007.30,0005.95
2022-07-18 17:56:00,,0827.2,5.00,0.00,29.5,27.9,00.0,38.1,31.4,29.8,0000.0,0021.46,0007.38,0005.96
2022-07-18 17:57:00,,0827.2,5.00,0.00,29.5,27.4,00.0,38.1,31.3,29.7,0000.0,0022.12,0007.48,0005.98
2022-07-18 17:58:00,,0827.2,5.01,0.00,29.5,27.3,00.0,38.0,31.3,28.9,0000.0,0022.72,0007.49,0005.98
2022-07-18 17:59:00,,0827.2,5.00,0.00,29.4,27.3,00.0,38.1,31.2,28.3,0000.0,0023.21,0007.48,0005.97
